Powrót do katalogu

ONEWEB-0667

AktywnyŁącznośćPO
NORAD 55827·PAYLOAD·🇬🇧 United Kingdom

Wystrzelony Mar 9, 2023 z Cape Canaveral Space Force Station

Loading…

Następne Przeloty (najbliższe 24 godziny)

TLE

ŚwieżeSource: CelesTrak SupGP

Epoka: Sep 14, 2026, 16:06 UTC

1 55827C 23029AH  26257.67102269 -.00002929  00000+0 -72112-2 0  2573
2 55827  87.9142 256.5840 0002159  87.0505  22.7333 13.20779834    17

Śledź ONEWEB-0667 w czasie rzeczywistym z AllMySat

Download on the App Store